Flag for United Kingdom Weather past 2 weeks in Liverpool, England, United Kingdom

Now
59 °F

Broken clouds.


Feels Like: 58 °F
Forecast: 55 / 66 °F
Wind: 7 mph from West

Location: Liverpool Airport

Current Time: Sep 1, 2014 at 10:12:47 AM

Latest Report: Sep 1, 2014 at 9:20 AM


Visibility: N/A

Pressure: 30.09 "Hg

Humidity: 94%

Dew point: 57 °F

Location of LiverpoolLocation

Historic Weather in Liverpool — Graph

°F

Liverpool temperature yesterday

Maximum temperature yesterday: 66 °F (at 4:50 PM)
Minimum temperature yesterday: 57 °F (at 12:20 AM)
Average temperature yesterday: 60 °F

Past Weeks' High & Low Weather Summary

 TemperatureHumidityPressure
High68 °F (Aug 28, 2:50 PM)100% (Aug 25, 7:50 AM)30.09 "Hg (Aug 25, 7:50 AM)
Low46 °F (Aug 27, 3:50 AM)46% (Aug 28, 3:50 PM)29.56 "Hg (Aug 25, 6:50 PM)
Average58 °F79%29.88 "Hg
* Reported Aug 17 8:20 AM — Sep 1 8:50 AM, Liverpool, Weather by CustomWeather, © 2014

Note: Actual official high and low records may vary slightly from our data, if they occured in-between our weather recording intervals... More about our weather records

Advertising

Liverpool weather history for previous 24 hours

 ConditionsComfort  
Time TempWeatherWind HumidityBarometerVisibility
8:50 AM
Sep 1
59 °FBroken clouds.6 mph94%30.09 "HgN/A
8:20 AM57 °FBroken clouds.7 mph100%30.09 "HgN/A
7:50 AM59 °FLight rain. Broken clouds.9 mph94%30.09 "Hg3 mi
7:20 AM59 °FDrizzle. Broken clouds.12 mph94%30.07 "Hg4 mi
6:50 AM59 °FPartly cloudy.12 mph100%30.07 "Hg4 mi
6:20 AM61 °FPartly cloudy.13 mph94%30.04 "Hg4 mi
5:50 AM59 °FPartly cloudy.5 mph100%30.04 "Hg4 mi
5:20 AM59 °FLight rain. Passing clouds.2 mph94%30.04 "Hg4 mi
4:50 AM59 °FLight rain. Passing clouds.3 mph94%30.04 "Hg4 mi
4:20 AM59 °FLight rain. Passing clouds.3 mph94%30.04 "Hg4 mi
3:50 AM59 °FLight rain. Passing clouds.3 mph94%30.04 "Hg4 mi
3:20 AM59 °FLight rain. Passing clouds.3 mph94%30.04 "Hg6 mi
2:50 AM59 °FLight rain. Passing clouds.2 mph88%30.04 "Hg6 mi
2:20 AM57 °FPassing clouds.5 mph94%30.04 "HgN/A
1:50 AM59 °FSprinkles. Passing clouds.5 mph88%30.04 "HgN/A
1:20 AM57 °FPassing clouds.5 mph88%30.07 "HgN/A
12:50 AM57 °FPassing clouds.5 mph88%30.07 "HgN/A
11:50 PM
Aug 31
57 °FClear.5 mph88%30.07 "Hg10 mi
11:20 PM57 °FPassing clouds.5 mph82%30.07 "HgN/A
10:50 PM57 °FClear.5 mph88%30.07 "Hg10 mi
10:20 PM57 °FClear.6 mph88%30.07 "Hg10 mi
9:50 PM57 °FClear.6 mph88%30.07 "Hg10 mi
9:20 PM59 °FClear.5 mph82%30.07 "Hg10 mi
8:50 PM61 °FSunny.8 mph72%30.07 "Hg10 mi
8:20 PM59 °FSunny.5 mph88%30.07 "Hg10 mi
7:50 PM61 °FSunny.6 mph77%30.07 "Hg10 mi
7:20 PM63 °FPassing clouds.2 mph73%30.07 "HgN/A
6:50 PM64 °FPassing clouds.3 mph73%30.07 "HgN/A
6:20 PM64 °FPassing clouds.3 mph68%30.07 "HgN/A
5:50 PM66 °FPassing clouds.3 mph64%30.07 "HgN/A
5:20 PM66 °FPassing clouds.5 mph64%30.07 "HgN/A
4:50 PM66 °FPassing clouds.5 mph64%30.07 "HgN/A
4:20 PM64 °FPassing clouds.3 mph68%30.07 "HgN/A
3:50 PM64 °FPassing clouds.6 mph68%30.07 "HgN/A
3:20 PM64 °FPassing clouds.7 mph68%30.07 "HgN/A
2:50 PM64 °FPassing clouds.9 mph68%30.07 "HgN/A
2:20 PM63 °FPassing clouds.12 mph73%30.09 "HgN/A
1:50 PM63 °FScattered clouds.10 mph73%30.09 "HgN/A
1:20 PM61 °FScattered clouds.13 mph83%30.09 "HgN/A
12:50 PM61 °FBroken clouds.13 mph83%30.07 "HgN/A
12:20 PM61 °FBroken clouds.12 mph83%30.07 "HgN/A
11:50 AM59 °FBroken clouds.14 mph88%30.07 "HgN/A
11:20 AM59 °FBroken clouds.13 mph88%30.07 "HgN/A
10:50 AM59 °FBroken clouds.14 mph88%30.07 "HgN/A
10:20 AM59 °FScattered showers. Broken clouds.13 mph94%30.07 "HgN/A
Weather by CustomWeather, © 2014

See weather overviewHow to use our weather pages